| time (UTC) | temp F | wind direction | speed MPH | gust MPH | rain 1hr in | rain 24hr in | rain mn in | humidity % | barometer mb |
| 20260901014548 | 80 | 39 | 0.0 | 1.0 | 0.00 | 0.05 | 0.05 | 90 | 1015.9 |
| 20260901014035 | 80 | 39 | 0.0 | 2.0 | 0.00 | 0.05 | 0.05 | 90 | 1015.9 |
| 20260901013548 | 80 | 39 | 0.0 | 2.0 | 0.00 | 0.05 | 0.05 | 90 | 1015.9 |
| 20260901013035 | 80 | 39 | 0.0 | 0.0 | 0.00 | 0.05 | 0.05 | 89 | 1015.8 |
| 20260901012552 | 80 | 39 | 0.0 | 0.0 | 0.00 | 0.05 | 0.05 | 89 | 1015.8 |
| 20260901012026 | 80 | 39 | 0.0 | 0.0 | 0.00 | 0.05 | 0.05 | 88 | 1015.8 |
| 20260901011535 | 80 | 39 | 0.0 | 0.0 | 0.00 | 0.05 | 0.05 | 88 | 1015.8 |
| 20260901011031 | 81 | 39 | 0.0 | 0.0 | 0.00 | 0.05 | 0.05 | 88 | 1015.8 |
| 20260901010547 | 81 | 39 | 0.0 | 0.0 | 0.00 | 0.05 | 0.05 | 88 | 1015.8 |
| 20260901010022 | 81 | 39 | 0.0 | 0.0 | 0.00 | 0.05 | 0.05 | 88 | 1015.4 |
| 20260901005539 | 81 | 39 | 0.0 | 1.0 | 0.00 | 0.05 | 0.05 | 87 | 1015.4 |
| 20260901005032 | 81 | 39 | 0.0 | 1.0 | 0.00 | 0.05 | 0.05 | 87 | 1015.4 |
| 20260901004527 | 81 | 39 | 0.0 | 2.0 | 0.00 | 0.05 | 0.05 | 87 | 1015.4 |
| 20260901004030 | 81 | 39 | 0.0 | 2.0 | 0.00 | 0.05 | 0.05 | 87 | 1015.4 |
| 20260901003526 | 81 | 39 | 1.0 | 2.0 | 0.00 | 0.05 | 0.05 | 87 | 1015.4 |
| 20260901003041 | 81 | 38 | 1.0 | 2.0 | 0.00 | 0.05 | 0.05 | 87 | 1015.5 |
| 20260901002529 | 81 | 50 | 1.0 | 2.0 | 0.00 | 0.05 | 0.05 | 87 | 1015.5 |
| 20260901002025 | 81 | 51 | 0.0 | 2.0 | 0.00 | 0.05 | 0.05 | 87 | 1015.5 |
| 20260901001552 | 81 | 51 | 0.0 | 3.0 | 0.00 | 0.05 | 0.05 | 87 | 1015.4 |
| 20260901001025 | 81 | 63 | 0.0 | 3.0 | 0.00 | 0.05 | 0.05 | 87 | 1015.4 |
| 20260901000541 | 81 | 37 | 1.0 | 3.0 | 0.00 | 0.05 | 0.05 | 87 | 1015.4 |
| 20260901000029 | 81 | 70 | 1.0 | 2.0 | 0.00 | 0.05 | 0.05 | 87 | 1015.4 |
| 20260831235526 | 81 | 71 | 1.0 | 3.0 | 0.00 | 0.05 | 0.05 | 87 | 1015.4 |
| 20260831235035 | 82 | 77 | 1.0 | 3.0 | 0.00 | 0.05 | 0.05 | 87 | 1015.4 |
| 20260831234528 | 82 | 32 | 0.0 | 2.0 | 0.00 | 0.05 | 0.05 | 88 | 1015.3 |
| 20260831234024 | 82 | 32 | 1.0 | 2.0 | 0.00 | 0.05 | 0.05 | 88 | 1015.3 |
| 20260831233538 | 82 | 32 | 0.0 | 2.0 | 0.00 | 0.05 | 0.05 | 88 | 1015.3 |
| 20260831233030 | 82 | 32 | 0.0 | 2.0 | 0.00 | 0.05 | 0.05 | 87 | 1015.3 |
| 20260831232525 | 82 | 45 | 0.0 | 3.0 | 0.00 | 0.05 | 0.05 | 87 | 1015.3 |
| 20260831232033 | 82 | 49 | 1.0 | 3.0 | 0.00 | 0.05 | 0.05 | 87 | 1015.3 |
| 20260831231530 | 82 | 37 | 1.0 | 2.0 | 0.00 | 0.05 | 0.05 | 86 | 1015.3 |
| 20260831231026 | 82 | 12 | 1.0 | 6.0 | 0.00 | 0.05 | 0.05 | 86 | 1015.3 |
| 20260831230543 | 82 | 66 | 2.0 | 6.0 | 0.00 | 0.05 | 0.05 | 86 | 1015.3 |
| 20260831230035 | 82 | 20 | 1.0 | 3.0 | 0.00 | 0.05 | 0.05 | 85 | 1015.2 |
| 20260831225545 | 82 | 4 | 0.0 | 2.0 | 0.00 | 0.05 | 0.05 | 84 | 1015.2 |
| 20260831225021 | 82 | 4 | 1.0 | 3.0 | 0.00 | 0.05 | 0.05 | 83 | 1015.2 |
| 20260831224551 | 82 | 33 | 1.0 | 4.0 | 0.00 | 0.05 | 0.05 | 83 | 1015.1 |
| 20260831224025 | 82 | 75 | 1.0 | 4.0 | 0.00 | 0.05 | 0.05 | 84 | 1015.1 |
| 20260831223602 | 82 | 34 | 0.0 | 4.0 | 0.00 | 0.05 | 0.05 | 85 | 1015.1 |
| 20260831223030 | 82 | 46 | 1.0 | 4.0 | 0.00 | 0.05 | 0.05 | 84 | 1015.3 |
| 20260831222526 | 82 | 39 | 2.0 | 4.0 | 0.00 | 0.05 | 0.05 | 85 | 1015.3 |
| 20260831222033 | 82 | 37 | 1.0 | 4.0 | 0.00 | 0.05 | 0.05 | 85 | 1015.3 |
| 20260831221526 | 82 | 26 | 1.0 | 4.0 | 0.00 | 0.05 | 0.05 | 84 | 1015.3 |
| 20260831221035 | 83 | 31 | 1.0 | 3.0 | 0.00 | 0.05 | 0.05 | 83 | 1015.3 |
| 20260831220531 | 83 | 34 | 1.0 | 3.0 | 0.00 | 0.05 | 0.05 | 83 | 1015.3 |
| 20260831220024 | 83 | 29 | 1.0 | 3.0 | 0.00 | 0.05 | 0.05 | 82 | 1015.4 |
| 20260831215538 | 83 | 24 | 1.0 | 3.0 | 0.00 | 0.05 | 0.05 | 82 | 1015.4 |
| 20260831215032 | 83 | 40 | 1.0 | 4.0 | 0.00 | 0.05 | 0.05 | 82 | 1015.4 |
| 20260831214531 | 83 | 29 | 1.0 | 4.0 | 0.00 | 0.05 | 0.05 | 81 | 1015.4 |
| 20260831214027 | 83 | 51 | 1.0 | 2.0 | 0.00 | 0.05 | 0.05 | 80 | 1015.4 |
| 20260831213557 | 83 | 343 | 1.0 | 4.0 | 0.00 | 0.05 | 0.05 | 82 | 1015.4 |
| 20260831213033 | 83 | 343 | 0.0 | 4.0 | 0.00 | 0.05 | 0.05 | 83 | 1015.4 |
| 20260831212528 | 83 | 316 | 0.0 | 3.0 | 0.00 | 0.05 | 0.05 | 82 | 1015.4 |
| 20260831212025 | 83 | 353 | 1.0 | 5.0 | 0.00 | 0.05 | 0.05 | 82 | 1015.4 |
| 20260831211522 | 83 | 323 | 1.0 | 5.0 | 0.00 | 0.05 | 0.05 | 81 | 1015.4 |
| 20260831211035 | 83 | 292 | 2.0 | 7.0 | 0.00 | 0.05 | 0.05 | 81 | 1015.4 |
| 20260831210531 | 83 | 340 | 1.0 | 7.0 | 0.00 | 0.05 | 0.05 | 81 | 1015.4 |
| 20260831210050 | 83 | 309 | 2.0 | 5.0 | 0.00 | 0.05 | 0.05 | 81 | 1015.5 |
| 20260831205525 | 83 | 353 | 1.0 | 3.0 | 0.00 | 0.05 | 0.05 | 83 | 1015.5 |
| 20260831205031 | 83 | 354 | 1.0 | 3.0 | 0.00 | 0.05 | 0.05 | 83 | 1015.5 |
| 20260831204527 | 83 | 348 | 1.0 | 6.0 | 0.00 | 0.05 | 0.05 | 84 | 1015.8 |
| 20260831204023 | 83 | 27 | 2.0 | 6.0 | 0.00 | 0.05 | 0.05 | 84 | 1015.8 |
| 20260831203537 | 83 | 335 | 2.0 | 5.0 | 0.00 | 0.05 | 0.05 | 85 | 1015.8 |
| 20260831203033 | 83 | 27 | 1.0 | 5.0 | 0.00 | 0.05 | 0.05 | 84 | 1015.8 |
| 20260831202529 | 83 | 41 | 1.0 | 4.0 | 0.00 | 0.05 | 0.05 | 85 | 1015.8 |
| 20260831202025 | 83 | 32 | 1.0 | 3.0 | 0.00 | 0.05 | 0.05 | 86 | 1015.8 |
| 20260831201532 | 83 | 30 | 0.0 | 4.0 | 0.00 | 0.05 | 0.05 | 86 | 1015.9 |
| 20260831201029 | 83 | 37 | 2.0 | 3.0 | 0.00 | 0.05 | 0.05 | 86 | 1015.9 |
| 20260831200524 | 83 | 345 | 1.0 | 3.0 | 0.00 | 0.05 | 0.05 | 87 | 1015.9 |
| 20260831200033 | 83 | 51 | 1.0 | 3.0 | 0.00 | 0.05 | 0.05 | 86 | 1015.9 |
| 20260831195528 | 83 | 36 | 1.0 | 3.0 | 0.00 | 0.05 | 0.05 | 86 | 1015.9 |
| 20260831195035 | 83 | 37 | 1.0 | 3.0 | 0.00 | 0.05 | 0.05 | 85 | 1015.9 |
| 20260831194549 | 83 | 44 | 1.0 | 3.0 | 0.00 | 0.05 | 0.05 | 85 | 1016.2 |
| 20260831194055 | 83 | 28 | 1.0 | 3.0 | 0.00 | 0.05 | 0.05 | 85 | 1016.2 |
| 20260831193530 | 83 | 359 | 1.0 | 4.0 | 0.00 | 0.05 | 0.05 | 85 | 1016.2 |
| 20260831193026 | 83 | 30 | 1.0 | 4.0 | 0.00 | 0.05 | 0.05 | 85 | 1016.2 |
| 20260831192534 | 83 | 30 | 2.0 | 5.0 | 0.00 | 0.05 | 0.05 | 85 | 1016.2 |
| 20260831192049 | 83 | 32 | 2.0 | 6.0 | 0.00 | 0.05 | 0.05 | 85 | 1016.2 |
| 20260831191526 | 83 | 34 | 1.0 | 3.0 | 0.00 | 0.05 | 0.05 | 85 | 1016.2 |
| 20260831191034 | 83 | 51 | 1.0 | 5.0 | 0.00 | 0.05 | 0.05 | 84 | 1016.2 |
| 20260831190531 | 83 | 34 | 1.0 | 5.0 | 0.00 | 0.05 | 0.05 | 83 | 1016.2 |
| 20260831190026 | 83 | 28 | 2.0 | 3.0 | 0.00 | 0.05 | 0.05 | 83 | 1015.9 |
| 20260831185532 | 83 | 44 | 2.0 | 3.0 | 0.00 | 0.05 | 0.05 | 83 | 1015.9 |
| 20260831185027 | 83 | 40 | 2.0 | 3.0 | 0.00 | 0.05 | 0.05 | 82 | 1015.9 |
| 20260831184531 | 83 | 18 | 1.0 | 4.0 | 0.00 | 0.05 | 0.05 | 83 | 1016.0 |
| 20260831184027 | 83 | 41 | 1.0 | 4.0 | 0.00 | 0.05 | 0.05 | 84 | 1016.0 |
| 20260831183549 | 83 | 58 | 0.0 | 3.0 | 0.00 | 0.05 | 0.05 | 84 | 1016.0 |
| 20260831183027 | 83 | 27 | 0.0 | 3.0 | 0.00 | 0.05 | 0.05 | 83 | 1016.3 |
| 20260831182524 | 83 | 21 | 0.0 | 2.0 | 0.00 | 0.06 | 0.05 | 83 | 1016.3 |
| 20260831182041 | 84 | 34 | 1.0 | 2.0 | 0.00 | 0.06 | 0.05 | 83 | 1016.3 |
| 20260831181529 | 84 | 44 | 0.0 | 3.0 | 0.00 | 0.06 | 0.05 | 83 | 1016.4 |
| 20260831181026 | 84 | 39 | 1.0 | 4.0 | 0.00 | 0.06 | 0.05 | 82 | 1016.4 |
| 20260831180554 | 84 | 53 | 2.0 | 4.0 | 0.00 | 0.06 | 0.05 | 83 | 1016.4 |
| 20260831180027 | 84 | 350 | 0.0 | 3.0 | 0.00 | 0.06 | 0.05 | 83 | 1016.4 |
| 20260831175535 | 84 | 350 | 1.0 | 5.0 | 0.00 | 0.06 | 0.05 | 82 | 1016.4 |
| 20260831175031 | 85 | 3 | 0.0 | 5.0 | 0.00 | 0.06 | 0.05 | 81 | 1016.4 |
| 20260831174526 | 85 | 147 | 0.0 | 2.0 | 0.00 | 0.06 | 0.05 | 81 | 1016.7 |
| 20260831174035 | 85 | 44 | 1.0 | 5.0 | 0.00 | 0.06 | 0.05 | 80 | 1016.7 |
| 20260831173531 | 85 | 52 | 1.0 | 5.0 | 0.00 | 0.06 | 0.05 | 80 | 1016.7 |
| 20260831173025 | 86 | 43 | 1.0 | 4.0 | 0.00 | 0.06 | 0.05 | 79 | 1016.5 |
| 20260831172521 | 86 | 41 | 2.0 | 4.0 | 0.00 | 0.10 | 0.05 | 79 | 1016.5 |
| 20260831172058 | 86 | 51 | 2.0 | 5.0 | 0.00 | 0.10 | 0.05 | 81 | 1016.5 |
| 20260831171529 | 86 | 39 | 2.0 | 5.0 | 0.00 | 0.10 | 0.05 | 82 | 1016.7 |
| 20260831171026 | 86 | 18 | 1.0 | 5.0 | 0.00 | 0.10 | 0.05 | 82 | 1016.7 |
| 20260831170542 | 85 | 66 | 3.0 | 5.0 | 0.00 | 0.10 | 0.05 | 82 | 1016.7 |
| 20260831170053 | 86 | 39 | 3.0 | 5.0 | 0.00 | 0.10 | 0.05 | 81 | 1016.5 |
| 20260831165548 | 86 | 30 | 1.0 | 4.0 | 0.00 | 0.10 | 0.05 | 82 | 1016.5 |
| 20260831165023 | 86 | 38 | 2.0 | 4.0 | 0.00 | 0.10 | 0.05 | 83 | 1016.5 |
| 20260831164530 | 85 | 115 | 1.0 | 4.0 | 0.00 | 0.10 | 0.05 | 83 | 1016.7 |
| 20260831164027 | 85 | 39 | 1.0 | 4.0 | 0.00 | 0.10 | 0.05 | 82 | 1016.7 |
| 20260831163521 | 85 | 16 | 1.0 | 5.0 | 0.00 | 0.10 | 0.05 | 83 | 1016.7 |
| 20260831163038 | 85 | 37 | 2.0 | 6.0 | 0.00 | 0.10 | 0.05 | 83 | 1016.9 |
| 20260831162533 | 85 | 19 | 4.0 | 6.0 | 0.00 | 0.69 | 0.05 | 84 | 1016.9 |
| 20260831162029 | 85 | 36 | 2.0 | 6.0 | 0.00 | 0.69 | 0.05 | 83 | 1016.9 |
| 20260831161554 | 85 | 19 | 2.0 | 6.0 | 0.00 | 0.69 | 0.05 | 84 | 1017.1 |
| 20260831161029 | 85 | 35 | 2.0 | 5.0 | 0.00 | 0.69 | 0.05 | 86 | 1017.1 |
| 20260831160524 | 85 | 23 | 2.0 | 5.0 | 0.00 | 0.69 | 0.05 | 85 | 1017.1 |
| 20260831160037 | 85 | 56 | 1.0 | 4.0 | 0.00 | 0.69 | 0.05 | 85 | 1017.3 |
| 20260831155533 | 84 | 66 | 1.0 | 4.0 | 0.00 | 0.69 | 0.05 | 85 | 1017.3 |
| 20260831155029 | 84 | 23 | 1.0 | 3.0 | 0.00 | 0.69 | 0.05 | 86 | 1017.3 |
| 20260831154526 | 84 | 9 | 0.0 | 4.0 | 0.00 | 0.69 | 0.05 | 88 | 1017.0 |
| 20260831154059 | 84 | 47 | 2.0 | 4.0 | 0.00 | 0.69 | 0.05 | 90 | 1017.0 |
| 20260831153532 | 84 | 51 | 1.0 | 3.0 | 0.00 | 0.69 | 0.05 | 91 | 1017.0 |
| 20260831153028 | 83 | 54 | 1.0 | 4.0 | 0.00 | 0.69 | 0.05 | 93 | 1017.1 |
| 20260831152527 | 83 | 40 | 2.0 | 4.0 | 0.00 | 0.69 | 0.05 | 95 | 1017.1 |
| 20260831152024 | 83 | 37 | 2.0 | 3.0 | 0.00 | 0.69 | 0.05 | 97 | 1017.1 |
| 20260831151539 | 82 | 41 | 1.0 | 4.0 | 0.00 | 0.69 | 0.05 | 99 | 1016.9 |
| 20260831151033 | 82 | 38 | 1.0 | 4.0 | 0.00 | 0.69 | 0.05 | 100 | 1016.9 |
| 20260831150529 | 82 | 61 | 1.0 | 3.0 | 0.00 | 0.69 | 0.05 | 100 | 1016.9 |
| 20260831150036 | 82 | 53 | 1.0 | 3.0 | 0.00 | 0.69 | 0.05 | 100 | 1017.0 |
| 20260831145532 | 82 | 45 | 1.0 | 2.0 | 0.00 | 0.69 | 0.05 | 100 | 1017.0 |
| 20260831145027 | 81 | 93 | 0.0 | 2.0 | 0.00 | 0.69 | 0.05 | 100 | 1017.0 |
| 20260831144536 | 81 | 93 | 1.0 | 3.0 | 0.00 | 0.69 | 0.05 | 100 | 1017.0 |
| 20260831144032 | 81 | 33 | 0.0 | 3.0 | 0.00 | 0.69 | 0.05 | 100 | 1017.0 |
| 20260831143528 | 81 | 38 | 0.0 | 4.0 | 0.00 | 0.69 | 0.05 | 100 | 1017.0 |
| 20260831143026 | 81 | 51 | 1.0 | 3.0 | 0.00 | 0.69 | 0.05 | 100 | 1017.0 |
| 20260831142535 | 81 | 8 | 1.0 | 2.0 | 0.00 | 0.69 | 0.05 | 100 | 1017.0 |
| 20260831142047 | 80 | 8 | 0.0 | 2.0 | 0.00 | 0.69 | 0.05 | 100 | 1017.0 |
| 20260831141522 | 80 | 25 | 1.0 | 2.0 | 0.00 | 0.69 | 0.05 | 100 | 1016.9 |
| 20260831141030 | 80 | 22 | 0.0 | 3.0 | 0.00 | 0.69 | 0.05 | 100 | 1016.9 |
| 20260831140528 | 80 | 50 | 0.0 | 3.0 | 0.00 | 0.69 | 0.05 | 100 | 1016.9 |
| 20260831140024 | 80 | 39 | 1.0 | 2.0 | 0.00 | 0.69 | 0.05 | 100 | 1016.9 |
| 20260831135529 | 80 | 13 | 0.0 | 2.0 | 0.00 | 0.69 | 0.05 | 100 | 1016.9 |
| 20260831135023 | 80 | 351 | 0.0 | 1.0 | 0.00 | 0.69 | 0.05 | 100 | 1016.9 |
| 20260831134531 | 80 | 351 | 0.0 | 3.0 | 0.00 | 0.69 | 0.05 | 100 | 1016.7 |
| 20260831134026 | 79 | 351 | 0.0 | 3.0 | 0.00 | 0.69 | 0.05 | 100 | 1016.7 |
| 20260831133552 | 79 | 359 | 1.0 | 2.0 | 0.00 | 0.69 | 0.05 | 100 | 1016.7 |
| 20260831133027 | 79 | 53 | 1.0 | 2.0 | 0.00 | 0.69 | 0.05 | 100 | 1016.5 |
| 20260831132535 | 79 | 1 | 0.0 | 1.0 | 0.00 | 0.69 | 0.05 | 100 | 1016.5 |
| 20260831132031 | 79 | 1 | 0.0 | 1.0 | 0.00 | 0.69 | 0.05 | 100 | 1016.5 |
| 20260831131526 | 79 | 1 | 0.0 | 2.0 | 0.00 | 0.69 | 0.05 | 100 | 1016.4 |
| 20260831131035 | 79 | 1 | 0.0 | 2.0 | 0.00 | 0.69 | 0.05 | 100 | 1016.4 |
| 20260831130532 | 79 | 1 | 0.0 | 2.0 | 0.00 | 0.69 | 0.05 | 100 | 1016.4 |
| 20260831130027 | 79 | 335 | 1.0 | 2.0 | 0.00 | 0.69 | 0.05 | 100 | 1016.4 |
| 20260831125536 | 79 | 324 | 0.0 | 2.0 | 0.00 | 0.69 | 0.05 | 100 | 1016.4 |
| 20260831125031 | 79 | 324 | 0.0 | 2.0 | 0.00 | 0.69 | 0.05 | 100 | 1016.4 |
| 20260831124531 | 79 | 324 | 1.0 | 2.0 | 0.00 | 0.69 | 0.05 | 100 | 1016.4 |
| 20260831124028 | 79 | 324 | 0.0 | 3.0 | 0.00 | 0.69 | 0.05 | 100 | 1016.4 |
| 20260831123557 | 79 | 323 | 2.0 | 3.0 | 0.00 | 0.69 | 0.05 | 100 | 1016.4 |
| 20260831123032 | 79 | 311 | 1.0 | 4.0 | 0.00 | 0.69 | 0.05 | 100 | 1016.3 |
| 20260831122525 | 78 | 328 | 1.0 | 4.0 | 0.00 | 0.70 | 0.05 | 100 | 1016.3 |
| 20260831122031 | 78 | 316 | 2.0 | 3.0 | 0.00 | 0.70 | 0.05 | 100 | 1016.3 |
| 20260831121547 | 78 | 333 | 2.0 | 3.0 | 0.00 | 0.70 | 0.05 | 100 | 1015.9 |
| 20260831121023 | 77 | 329 | 1.0 | 2.0 | 0.00 | 0.70 | 0.05 | 100 | 1015.9 |
| 20260831120538 | 77 | 318 | 0.0 | 1.0 | 0.00 | 0.70 | 0.05 | 100 | 1015.9 |
| 20260831120033 | 77 | 280 | 0.0 | 0.0 | 0.00 | 0.70 | 0.05 | 100 | 1015.8 |
| 20260831115528 | 77 | 280 | 0.0 | 0.0 | 0.00 | 0.70 | 0.05 | 100 | 1015.8 |
| 20260831115025 | 76 | 277 | 0.0 | 0.0 | 0.00 | 0.70 | 0.05 | 100 | 1015.8 |
| 20260831114553 | 76 | 277 | 0.0 | 0.0 | 0.00 | 0.70 | 0.05 | 100 | 1015.7 |
| 20260831114029 | 76 | 277 | 0.0 | 0.0 | 0.00 | 0.70 | 0.05 | 100 | 1015.7 |
| 20260831113523 | 76 | 277 | 0.0 | 0.0 | 0.00 | 0.70 | 0.05 | 100 | 1015.7 |
| 20260831113031 | 76 | 277 | 0.0 | 0.0 | 0.00 | 0.70 | 0.05 | 100 | 1015.5 |
| 20260831112527 | 76 | 277 | 0.0 | 0.0 | 0.00 | 0.70 | 0.05 | 100 | 1015.5 |
| 20260831112034 | 76 | 277 | 0.0 | 0.0 | 0.00 | 0.70 | 0.05 | 100 | 1015.5 |
| 20260831111532 | 76 | 277 | 0.0 | 0.0 | 0.00 | 0.70 | 0.05 | 100 | 1015.3 |
| 20260831111027 | 76 | 277 | 0.0 | 0.0 | 0.00 | 0.70 | 0.05 | 100 | 1015.3 |
| 20260831110525 | 76 | 277 | 0.0 | 0.0 | 0.00 | 0.70 | 0.05 | 100 | 1015.3 |
| 20260831110021 | 76 | 277 | 0.0 | 0.0 | 0.00 | 0.70 | 0.05 | 100 | 1015.3 |
| 20260831105537 | 76 | 277 | 0.0 | 0.0 | 0.00 | 0.70 | 0.05 | 100 | 1015.3 |
| 20260831105033 | 76 | 277 | 0.0 | 0.0 | 0.00 | 0.70 | 0.05 | 100 | 1015.3 |
| 20260831104550 | 76 | 277 | 0.0 | 0.0 | 0.00 | 0.70 | 0.05 | 100 | 1015.0 |
| 20260831104025 | 76 | 277 | 0.0 | 0.0 | 0.00 | 0.70 | 0.05 | 100 | 1015.0 |
| 20260831103534 | 76 | 277 | 0.0 | 0.0 | 0.00 | 0.70 | 0.05 | 100 | 1015.0 |
| 20260831103030 | 76 | 277 | 0.0 | 0.0 | 0.00 | 0.70 | 0.05 | 100 | 1014.9 |
| 20260831102526 | 76 | 277 | 0.0 | 0.0 | 0.00 | 0.72 | 0.05 | 100 | 1014.9 |
| 20260831102042 | 76 | 277 | 0.0 | 0.0 | 0.00 | 0.72 | 0.05 | 100 | 1014.9 |
| 20260831101553 | 76 | 277 | 0.0 | 0.0 | 0.00 | 0.72 | 0.05 | 100 | 1014.8 |
| 20260831101029 | 76 | 277 | 0.0 | 0.0 | 0.00 | 0.72 | 0.05 | 100 | 1014.8 |
| 20260831100524 | 76 | 277 | 0.0 | 0.0 | 0.00 | 0.72 | 0.05 | 100 | 1014.8 |
| 20260831100032 | 76 | 277 | 0.0 | 0.0 | 0.00 | 0.72 | 0.05 | 100 | 1014.8 |
| 20260831095528 | 76 | 277 | 0.0 | 0.0 | 0.00 | 0.72 | 0.05 | 100 | 1014.8 |
| 20260831095040 | 76 | 277 | 0.0 | 0.0 | 0.00 | 0.72 | 0.05 | 100 | 1014.8 |
| 20260831094529 | 76 | 277 | 0.0 | 0.0 | 0.00 | 0.72 | 0.05 | 100 | 1014.8 |
| 20260831094057 | 76 | 277 | 0.0 | 0.0 | 0.00 | 0.72 | 0.05 | 100 | 1014.8 |
| 20260831093553 | 76 | 277 | 0.0 | 0.0 | 0.00 | 0.72 | 0.05 | 100 | 1014.8 |
| 20260831093028 | 76 | 277 | 0.0 | 0.0 | 0.00 | 0.72 | 0.05 | 100 | 1014.9 |
| 20260831092556 | 76 | 277 | 0.0 | 1.0 | 0.00 | 0.72 | 0.05 | 100 | 1014.9 |
| 20260831092031 | 76 | 277 | 0.0 | 2.0 | 0.00 | 0.72 | 0.05 | 100 | 1014.9 |
| 20260831091528 | 76 | 277 | 0.0 | 1.0 | 0.00 | 0.72 | 0.05 | 100 | 1014.8 |
| 20260831091024 | 76 | 277 | 0.0 | 0.0 | 0.00 | 0.72 | 0.05 | 100 | 1014.8 |
| 20260831090534 | 76 | 277 | 0.0 | 0.0 | 0.00 | 0.72 | 0.05 | 100 | 1014.8 |
| 20260831090049 | 76 | 277 | 0.0 | 1.0 | 0.00 | 0.72 | 0.05 | 100 | 1015.1 |
| 20260831085532 | 76 | 277 | 0.0 | 1.0 | 0.00 | 0.72 | 0.05 | 100 | 1015.1 |
| 20260831085028 | 76 | 277 | 0.0 | 1.0 | 0.00 | 0.72 | 0.05 | 100 | 1015.1 |
| 20260831084521 | 76 | 277 | 0.0 | 1.0 | 0.00 | 0.72 | 0.05 | 100 | 1015.1 |
| 20260831084038 | 76 | 277 | 0.0 | 1.0 | 0.00 | 0.72 | 0.05 | 100 | 1015.1 |
| 20260831083535 | 76 | 277 | 0.0 | 0.0 | 0.00 | 0.72 | 0.05 | 100 | 1015.1 |
| 20260831083048 | 76 | 277 | 0.0 | 0.0 | 0.00 | 0.72 | 0.05 | 100 | 1015.2 |
| 20260831082522 | 76 | 277 | 0.0 | 0.0 | 0.00 | 0.72 | 0.05 | 100 | 1015.2 |
| 20260831082031 | 76 | 277 | 0.0 | 0.0 | 0.00 | 0.72 | 0.05 | 100 | 1015.2 |
| 20260831081526 | 76 | 277 | 0.0 | 0.0 | 0.00 | 0.72 | 0.05 | 100 | 1015.2 |
| 20260831081021 | 76 | 277 | 0.0 | 0.0 | 0.00 | 0.72 | 0.05 | 100 | 1015.2 |
| 20260831080537 | 76 | 277 | 0.0 | 0.0 | 0.00 | 0.72 | 0.05 | 100 | 1015.2 |
| 20260831080033 | 76 | 277 | 0.0 | 0.0 | 0.00 | 0.72 | 0.05 | 100 | 1015.1 |
| 20260831075530 | 76 | 277 | 0.0 | 0.0 | 0.00 | 0.72 | 0.05 | 100 | 1015.1 |
| 20260831075027 | 76 | 277 | 0.0 | 0.0 | 0.00 | 0.72 | 0.05 | 100 | 1015.1 |
| 20260831074556 | 76 | 277 | 0.0 | 1.0 | 0.00 | 0.72 | 0.05 | 100 | 1015.3 |
| 20260831074031 | 76 | 277 | 0.0 | 1.0 | 0.00 | 0.72 | 0.05 | 100 | 1015.3 |
| 20260831073528 | 76 | 277 | 0.0 | 0.0 | 0.00 | 0.72 | 0.05 | 100 | 1015.3 |
| 20260831073036 | 76 | 277 | 0.0 | 1.0 | 0.00 | 0.72 | 0.05 | 100 | 1015.4 |
| 20260831072551 | 76 | 277 | 0.0 | 1.0 | 0.00 | 0.72 | 0.05 | 100 | 1015.4 |
| 20260831072027 | 76 | 277 | 0.0 | 0.0 | 0.00 | 0.72 | 0.05 | 100 | 1015.4 |
| 20260831071536 | 76 | 277 | 0.0 | 0.0 | 0.00 | 0.72 | 0.05 | 100 | 1015.5 |
| 20260831071032 | 76 | 277 | 0.0 | 0.0 | 0.00 | 0.72 | 0.05 | 100 | 1015.5 |
| 20260831070528 | 76 | 277 | 0.0 | 1.0 | 0.00 | 0.72 | 0.05 | 100 | 1015.5 |
| 20260831070036 | 76 | 277 | 0.0 | 1.0 | 0.00 | 0.72 | 0.05 | 100 | 1015.5 |
| 20260831065531 | 77 | 277 | 0.0 | 2.0 | 0.00 | 0.72 | 0.05 | 100 | 1015.5 |
| 20260831065044 | 77 | 278 | 0.0 | 2.0 | 0.01 | 0.72 | 0.05 | 100 | 1015.5 |
| 20260831064552 | 77 | 278 | 0.0 | 2.0 | 0.01 | 0.72 | 0.05 | 100 | 1015.5 |
| 20260831064028 | 77 | 247 | 1.0 | 2.0 | 0.04 | 0.72 | 0.05 | 100 | 1015.5 |
| 20260831063522 | 77 | 147 | 0.0 | 0.0 | 0.05 | 0.72 | 0.05 | 100 | 1015.5 |
| 20260831063030 | 77 | 147 | 0.0 | 0.0 | 0.05 | 0.72 | 0.05 | 100 | 1015.4 |
| 20260831062525 | 77 | 147 | 0.0 | 0.0 | 0.05 | 0.72 | 0.05 | 100 | 1015.4 |
| 20260831062033 | 77 | 147 | 0.0 | 0.0 | 0.05 | 0.72 | 0.05 | 100 | 1015.4 |
| 20260831061529 | 77 | 147 | 0.0 | 0.0 | 0.05 | 0.72 | 0.05 | 100 | 1015.8 |
| 20260831061024 | 77 | 147 | 0.0 | 0.0 | 0.05 | 0.72 | 0.05 | 100 | 1015.8 |
| 20260831060554 | 77 | 147 | 0.0 | 0.0 | 0.05 | 0.72 | 0.05 | 100 | 1015.8 |
| 20260831060029 | 77 | 147 | 0.0 | 0.0 | 0.05 | 0.72 | 0.05 | 100 | 1015.9 |
| 20260831055524 | 77 | 147 | 0.0 | 0.0 | 0.05 | 0.72 | 0.05 | 100 | 1015.9 |
| 20260831055033 | 77 | 147 | 0.0 | 1.0 | 0.04 | 0.71 | 0.04 | 100 | 1015.9 |
| 20260831054529 | 77 | 147 | 0.0 | 1.0 | 0.04 | 0.71 | 0.04 | 100 | 1016.4 |
| 20260831054045 | 77 | 147 | 0.0 | 2.0 | 0.01 | 0.68 | 0.01 | 100 | 1016.4 |
| 20260831053534 | 77 | 147 | 0.0 | 2.0 | 0.00 | 0.67 | 0.00 | 100 | 1016.4 |
| 20260831053030 | 77 | 148 | 0.0 | 3.0 | 0.00 | 0.67 | 0.00 | 100 | 1016.2 |
| 20260831052548 | 77 | 148 | 0.0 | 3.0 | 0.00 | 0.67 | 0.00 | 100 | 1016.2 |
| 20260831052021 | 77 | 76 | 0.0 | 0.0 | 0.00 | 0.67 | 0.00 | 100 | 1016.2 |
| 20260831051535 | 77 | 76 | 0.0 | 0.0 | 0.00 | 0.67 | 0.00 | 100 | 1016.4 |
| 20260831051032 | 77 | 76 | 0.0 | 0.0 | 0.00 | 0.67 | 0.00 | 100 | 1016.4 |
| 20260831050527 | 77 | 76 | 0.0 | 0.0 | 0.00 | 0.67 | 0.00 | 100 | 1016.4 |
| 20260831050036 | 77 | 76 | 0.0 | 0.0 | 0.00 | 0.67 | 0.00 | 100 | 1016.4 |
| 20260831045533 | 76 | 76 | 0.0 | 0.0 | 0.00 | 0.67 | 0.00 | 100 | 1016.4 |
| 20260831045046 | 76 | 76 | 0.0 | 0.0 | 0.00 | 0.67 | 0.00 | 99 | 1016.4 |
| 20260831044527 | 76 | 76 | 0.0 | 0.0 | 0.00 | 0.67 | 0.00 | 99 | 1016.4 |
| 20260831044024 | 76 | 76 | 0.0 | 0.0 | 0.00 | 0.67 | 0.00 | 99 | 1016.4 |
| 20260831043521 | 76 | 76 | 0.0 | 0.0 | 0.00 | 0.67 | 0.00 | 99 | 1016.4 |
| 20260831043037 | 76 | 76 | 0.0 | 0.0 | 0.00 | 0.67 | 0.00 | 98 | 1016.6 |
| 20260831042528 | 76 | 76 | 0.0 | 0.0 | 0.00 | 0.67 | 0.00 | 98 | 1016.6 |
| 20260831042102 | 76 | 76 | 0.0 | 0.0 | 0.00 | 0.67 | 0.00 | 98 | 1016.6 |
| 20260831041530 | 77 | 76 | 0.0 | 0.0 | 0.00 | 0.67 | 0.00 | 98 | 1016.7 |
| 20260831041025 | 77 | 76 | 0.0 | 0.0 | 0.00 | 0.67 | 0.00 | 98 | 1016.7 |
| 20260831040554 | 77 | 76 | 0.0 | 0.0 | 0.00 | 0.67 | 0.00 | 97 | 1016.7 |
| 20260831040028 | 77 | 76 | 0.0 | 0.0 | 0.00 | 0.67 | 0.67 | 97 | 1016.9 |
| 20260831035536 | 77 | 76 | 0.0 | 0.0 | 0.00 | 0.67 | 0.67 | 97 | 1016.9 |
| 20260831035033 | 77 | 76 | 0.0 | 0.0 | 0.00 | 0.67 | 0.67 | 97 | 1016.9 |
| 20260831034546 | 77 | 76 | 0.0 | 0.0 | 0.00 | 0.67 | 0.67 | 96 | 1016.8 |
| 20260831034034 | 77 | 76 | 0.0 | 0.0 | 0.00 | 0.67 | 0.67 | 96 | 1016.8 |
| 20260831033551 | 77 | 76 | 0.0 | 0.0 | 0.00 | 0.67 | 0.67 | 96 | 1016.8 |
| 20260831033025 | 77 | 76 | 0.0 | 0.0 | 0.00 | 0.67 | 0.67 | 96 | 1016.8 |
| 20260831032533 | 77 | 76 | 0.0 | 0.0 | 0.00 | 0.67 | 0.67 | 96 | 1016.8 |
| 20260831032029 | 77 | 76 | 0.0 | 0.0 | 0.00 | 0.67 | 0.67 | 96 | 1016.8 |
| 20260831031554 | 77 | 76 | 0.0 | 0.0 | 0.00 | 0.67 | 0.67 | 95 | 1016.5 |
| 20260831031028 | 77 | 76 | 0.0 | 0.0 | 0.00 | 0.67 | 0.67 | 94 | 1016.5 |
| 20260831030525 | 77 | 76 | 0.0 | 0.0 | 0.00 | 0.67 | 0.67 | 94 | 1016.5 |
| 20260831030059 | 77 | 76 | 0.0 | 0.0 | 0.00 | 0.67 | 0.67 | 94 | 1016.5 |
| 20260831025531 | 77 | 76 | 0.0 | 0.0 | 0.00 | 0.67 | 0.67 | 94 | 1016.5 |
| 20260831025029 | 77 | 76 | 0.0 | 0.0 | 0.00 | 0.67 | 0.67 | 93 | 1016.5 |
| 20260831024525 | 77 | 76 | 0.0 | 0.0 | 0.00 | 0.67 | 0.67 | 93 | 1016.5 |
| 20260831024032 | 77 | 76 | 0.0 | 0.0 | 0.00 | 0.67 | 0.67 | 92 | 1016.5 |
| 20260831023529 | 77 | 76 | 0.0 | 0.0 | 0.00 | 0.67 | 0.67 | 92 | 1016.5 |
| 20260831023021 | 77 | 76 | 0.0 | 0.0 | 0.00 | 0.67 | 0.67 | 92 | 1016.7 |
| 20260831022531 | 77 | 76 | 0.0 | 0.0 | 0.00 | 0.67 | 0.67 | 92 | 1016.7 |
| 20260831022027 | 77 | 76 | 0.0 | 0.0 | 0.00 | 0.67 | 0.67 | 91 | 1016.7 |
| 20260831021523 | 77 | 76 | 0.0 | 0.0 | 0.00 | 0.67 | 0.67 | 91 | 1016.8 |
| 20260831021035 | 77 | 76 | 0.0 | 0.0 | 0.00 | 0.67 | 0.67 | 91 | 1016.8 |
| 20260831020530 | 78 | 76 | 0.0 | 0.0 | 0.00 | 0.67 | 0.67 | 91 | 1016.8 |
| 20260831020031 | 78 | 76 | 0.0 | 0.0 | 0.00 | 0.67 | 0.67 | 91 | 1016.8 |
| 20260831015547 | 78 | 76 | 0.0 | 0.0 | 0.00 | 0.67 | 0.67 | 91 | 1016.8 |
| 20260831015022 | 78 | 76 | 0.0 | 0.0 | 0.00 | 0.67 | 0.67 | 90 | 1016.8 |